Lumberton, NC

6:50 AM EDT on October 21, 2017 (GMT -0400)
Lumberton Municipal

Weather History for KLBT - March, 2012

Change the Weather History Date:

Saturday, March 3, 2012

  Actual Average Record
Temperature  
Mean Temperature 61 °F 51 °F  
Max Temperature 69 °F 62 °F 75 °F (2004)
Min Temperature 53 °F 39 °F 22 °F (2005)
Degree Days  
Heating Degree Days 4 15  
Month to date heating degree days 5 45  
Since 1 July heating degree days 1853 2275  
Cooling Degree Days 0 0  
Month to date cooling degree days 6 0  
Year to date cooling degree days 6 3  
Growing Degree Days 11 (Base 50)    
Moisture  
Dew Point 59 °F    
Average Humidity 87    
Maximum Humidity 100    
Minimum Humidity 73    
Precipitation  
Precipitation 0.80 in 0.12 in 0.80 in (2012)
Month to date precipitation 0.94 0.35  
Year to date precipitation 5.46 6.22  
Sea Level Pressure  
Sea Level Pressure 29.72 in    
Wind  
Wind Speed 8 mph (SW)    
Max Wind Speed 33 mph    
Max Gust Speed 44 mph    
Visibility 8 miles    
Events Fog , Rain    
T = Trace of Precipitation, MM = Missing Value Source: NWS Daily Summary

Daily Weather History Graph

Daily Weather History Graph

Search for Another Location

Airport or City:

Trip Planner

Search our weather history database for the weather conditions in past years. The results will help you decide how hot, cold, wet, or windy it might be!

Date:

Astronomy

Mar. 03, 2012 Rise Set
Actual Time 6:42 AM EST 6:14 PM EST
Civil Twilight 6:16 AM EST 6:39 PM EST
Nautical Twilight 5:47 AM EST 7:08 PM EST
Astronomical Twilight 5:18 AM EST 7:38 PM EST
Moon 1:32 PM EST (3/3) 3:07 AM EST (3/3)
Length of Visible Light 12h 22m
Length of Day
11h 32m
Waxing Gibbous, 75% of the Moon is Illuminated
Mar 3
Waxing Gibbous
Mar 8
Full
Mar 14
Last Quarter
Mar 22
New
Mar 30
First Quarter

Hourly Weather History & Observations

Time (EST) Temp. Dew Point Humidity Pressure Visibility Wind Dir Wind Speed Gust Speed Precip Events Conditions
12:54 AM 68.0 °F 60.1 °F 76% 29.73 in 10.0 mi SSW 10.4 mph - N/A   Clear
1:54 AM 68.0 °F 60.1 °F 76% 29.71 in 10.0 mi SSW 11.5 mph 17.3 mph N/A   Scattered Clouds
2:54 AM 69.1 °F 60.1 °F 73% 29.69 in 10.0 mi SSW 11.5 mph 19.6 mph N/A   Scattered Clouds
3:54 AM 69.1 °F 60.1 °F 73% 29.65 in 10.0 mi SSW 13.8 mph 23.0 mph N/A   Mostly Cloudy
4:54 AM 66.9 °F 62.1 °F 84% 29.68 in 10.0 mi SW 10.4 mph 19.6 mph 0.01 in   Overcast
5:54 AM 66.0 °F 62.1 °F 87% 29.68 in 4.0 mi SSW 11.5 mph - 0.04 in Rain Light Rain
6:44 AM 66.2 °F 62.6 °F 88% 29.70 in 10.0 mi SSW 10.4 mph 23.0 mph 0.02 in   Overcast
6:54 AM 66.0 °F 63.0 °F 90% 29.69 in 10.0 mi SSW 9.2 mph 21.9 mph 0.02 in   Overcast
7:10 AM 66.2 °F 62.6 °F 88% 29.76 in 1.8 mi WNW 33.4 mph 43.7 mph 0.10 in Rain Light Rain
7:12 AM 64.4 °F 60.8 °F 88% 29.77 in 0.8 mi WNW 26.5 mph 43.7 mph 0.19 in Rain Rain
7:20 AM 62.6 °F 59.0 °F 88% 29.76 in 0.5 mi West 17.3 mph 33.4 mph 0.30 in Fog , Rain Heavy Rain
7:23 AM 62.6 °F 59.0 °F 88% 29.74 in 1.2 mi West 16.1 mph 33.4 mph 0.32 in Rain Heavy Rain
7:29 AM 60.8 °F 59.0 °F 94% 29.73 in 2.0 mi WSW 11.5 mph 20.7 mph 0.33 in Rain Rain
7:37 AM 60.8 °F 59.0 °F 94% 29.72 in 7.0 mi WSW 8.1 mph - 0.33 in Rain Light Rain
7:54 AM 61.0 °F 59.0 °F 93% 29.71 in 10.0 mi South 5.8 mph - 0.33 in   Overcast
8:54 AM 62.1 °F 59.0 °F 90% 29.73 in 10.0 mi SSW 5.8 mph - N/A   Overcast
9:54 AM 64.0 °F 60.1 °F 87% 29.75 in 10.0 mi WSW 6.9 mph - 0.01 in   Overcast
10:54 AM 64.0 °F 61.0 °F 90% 29.75 in 10.0 mi SW 9.2 mph - 0.03 in   Overcast
11:54 AM 63.0 °F 61.0 °F 93% 29.73 in 7.0 mi SSW 9.2 mph - 0.03 in Rain Light Rain
12:29 PM 62.6 °F 60.8 °F 94% 29.75 in 3.0 mi SSW 8.1 mph - 0.03 in Rain Light Rain
12:37 PM 62.6 °F 60.8 °F 94% 29.74 in 6.0 mi SSW 8.1 mph - 0.04 in Rain Light Rain
12:45 PM 62.6 °F 60.8 °F 94% 29.72 in 7.0 mi SSE 5.8 mph - 0.04 in Rain Light Rain
12:54 PM 63.0 °F 61.0 °F 93% 29.72 in 9.0 mi South 8.1 mph - 0.04 in Rain Light Rain
1:32 PM 62.6 °F 60.8 °F 94% 29.72 in 4.0 mi South 9.2 mph - 0.03 in Rain Light Rain
1:54 PM 63.0 °F 61.0 °F 93% 29.68 in 10.0 mi South 8.1 mph 16.1 mph 0.03 in   Overcast
2:07 PM 62.6 °F 60.8 °F 94% 29.66 in 10.0 mi South 9.2 mph 17.3 mph N/A   Overcast
2:52 PM 62.6 °F 60.8 °F 94% 29.70 in 10.0 mi SW 9.2 mph - 0.01 in   Overcast
2:54 PM 62.1 °F 60.1 °F 93% 29.70 in 10.0 mi SW 8.1 mph - 0.01 in   Overcast
3:16 PM 62.6 °F 59.0 °F 88% 29.71 in 10.0 mi SSW 6.9 mph - 0.00 in   Overcast
3:54 PM 61.0 °F 57.9 °F 90% 29.72 in 10.0 mi SSW 10.4 mph - 0.00 in   Overcast
4:44 PM 60.8 °F 57.2 °F 88% 29.72 in 10.0 mi SSW 9.2 mph - 0.00 in   Mostly Cloudy
4:52 PM 60.8 °F 57.2 °F 88% 29.72 in 10.0 mi SSW 8.1 mph - 0.00 in   Mostly Cloudy
4:54 PM 61.0 °F 57.0 °F 87% 29.72 in 10.0 mi SSW 8.1 mph - 0.00 in   Mostly Cloudy
5:41 PM 60.8 °F 57.2 °F 88% 29.72 in 10.0 mi SSW 6.9 mph - N/A   Overcast
5:54 PM 59.0 °F 57.0 °F 93% 29.73 in 5.0 mi SW 6.9 mph - 0.01 in Rain Light Rain
6:46 PM 59.0 °F 57.2 °F 94% 29.72 in 10.0 mi Calm Calm - 0.03 in   Overcast
6:54 PM 57.9 °F 57.0 °F 97% 29.73 in 10.0 mi Calm Calm - 0.03 in   Overcast
7:47 PM 57.2 °F 57.2 °F 100% 29.74 in 10.0 mi SSW 3.5 mph - 0.01 in   Overcast
7:54 PM 57.9 °F 57.0 °F 97% 29.73 in 10.0 mi Calm Calm - 0.01 in   Overcast
8:29 PM 57.2 °F 57.2 °F 100% 29.71 in 8.0 mi Calm Calm - 0.01 in Rain Light Rain
8:52 PM 57.2 °F 57.2 °F 100% 29.73 in 6.0 mi WNW 3.5 mph - 0.01 in   Overcast
8:54 PM 57.9 °F 57.0 °F 97% 29.73 in 5.0 mi WNW 4.6 mph - 0.01 in   Overcast
9:15 PM 57.2 °F 55.4 °F 94% 29.74 in 4.0 mi North 6.9 mph - 0.03 in Rain Light Rain
9:46 PM 55.4 °F 53.6 °F 94% 29.73 in 6.0 mi NNE 5.8 mph - 0.07 in Rain Light Rain
9:54 PM 55.9 °F 53.1 °F 90% 29.73 in 7.0 mi NNE 4.6 mph - 0.07 in Rain Light Rain
10:54 PM 54.0 °F 51.1 °F 90% 29.73 in 6.0 mi North 5.8 mph - 0.05 in Rain Light Rain
11:10 PM 53.6 °F 50.0 °F 88% 29.74 in 5.0 mi North 6.9 mph - 0.02 in Rain Light Rain
11:54 PM 53.1 °F 50.0 °F 89% 29.72 in 7.0 mi Calm Calm - 0.06 in Rain Light Rain